Hourly Weather Roundup
Issued by NWS Central Illinois

Home | Current Version | Previous Version | Text Only | Print | Product List | Glossary On
Versions: 1 2 3 4 5 6 7 8 9 10 11 12 13 14 15 16 17 18 19 20 21 22 23 24 25 26 27 28 29 30 31 32 33 34 35 36 37 38 39 40 41 42 43 44 45 46 47 48 49 50
000
NZUS43 KILX 260810
HWRILX

AREA WEATHER ROUNDUP
NATIONAL WEATHER SERVICE, LINCOLN IL
300 AM CDT SUN APR 26 2015


CITY           SKY/WX    TMP DP  RH WIND       PRES   REMARKS
BLOOMINGTON    PTCLDY    40  37  89 NE14      29.86S WCI  32
CHAMPAIGN      CLOUDY    44  38  79 N14       29.83R
DECATUR        CLOUDY    45  40  82 NE15      29.82S
EFFINGHAM      CLOUDY    46  41  82 N6        29.80R
FLORA          CLOUDY    47  44  87 NE8       29.77R
GALESBURG      MOCLDY    39  32  75 NE8       29.90R WCI  34
JACKSONVILLE   CLOUDY    47  43  83 NE12      29.85R
LACON          MOCLDY    40  28  62 NE3       29.88F
LAWRENCEVILLE  CLOUDY    47  43  86 NE9       29.76R
LITCHFIELD     CLOUDY    45  40  84 NE13      29.81S
$$


CITY           SKY/WX    TMP DP  RH WIND       PRES   REMARKS
LINCOLN        CLEAR     43  39  86 N12       29.85S
MACOMB         CLOUDY    43  37  80 NE12      29.90S
MATTOON        CLOUDY    44  40  85 N12       29.80R
MT CARMEL AP   CLOUDY    50  43  76 NE9       29.75R
OLNEY-NOBLE AP CLOUDY    46  43  87 N6        29.77R
PARIS          CLOUDY    44  36  73 NE7       29.81R
PEORIA         PTCLDY    43  32  65 NE6       29.88R
PONTIAC        CLOUDY    41  36  83 N8        29.88S
RANTOUL        CLOUDY    44  38  80 N9        29.84R
ROBINSON       CLOUDY    46  42  86 NE10      29.78R
SPRINGFIELD    CLOUDY    47  42  83 NE14      29.84R
TAYLORVILLE    CLOUDY    45  41  87 N10       29.82R
$$

...REGIONAL REPORTS...


CITY           SKY/WX    TMP DP  RH WIND       PRES   REMARKS
CHICAGO O`HARE CLEAR     37  29  72 N7        29.89R WCI  32
KANKAKEE       CLEAR     39  35  85 NW3       29.87S
MOLINE         CLEAR     42  33  70 CALM      29.92R
MOUNT VERNON   CLOUDY    48  43  81 N8        29.76R
PITTSFIELD     CLOUDY    47  42  83 N8        29.86R
QUINCY         CLOUDY    46  41  82 NE16      29.87R
ROCKFORD       CLEAR     35  22  58 N9        29.94R WCI  28
$$


CITY           SKY/WX    TMP DP  RH WIND       PRES   REMARKS
BURLINGTON     CLOUDY    44  34  67 NE13      29.90R
CEDAR RAPIDS   FAIR      41  35  79 NE8       29.93R
DES MOINES     CLOUDY    48  38  68 E8        29.94R
KIRKSVILLE     CLOUDY    47  42  83 NE13      29.88S
OTTUMWA        MOCLDY    41  37  86 NE8       29.91S
ST LOUIS       CLOUDY    49  43  80 NE13      29.81S
$$


CITY           SKY/WX    TMP DP  RH WIND       PRES   REMARKS
TERRE HAUTE    CLOUDY    45  37  73 NE7       29.78R
EVANSVILLE     CLOUDY    49  43  80 NE15      29.73R
INDIANAPOLIS   CLOUDY    43  29  57 NE12      29.76R
LAFAYETTE      CLOUDY    42  33  70 N8        29.83R
MADISON        CLEAR     33  21  61 N7        29.95R WCI  27
MILWAUKEE      CLEAR     36  28  73 N7        29.95R WCI  30
$$





USA.gov is the U.S. government's official web portal to all federal, state and local government web resources and services.